Weather in Felidhoo

Maldives     3°28′19″N   73°32′45″E
temp.,
°C
wind,
m/s
gust,
m/s
humid.,
%
clouds,
%
prec.,
mm/h
press.,
hPa
HPBL,
m
10 august, wed
wed1023:00+28w5678100 0.2 1009626
02:00+27w5579100 0.4 1008610
05:00+27w3478100 1.6 1008489
08:00+27wnw4476100 0.0 1009642
11:00+28wnw2375100 0.0 1009655
14:00+28nw447678 0.0 1006672
17:00+28nw457664 0.0 1007752
20:00+28nw457897 0.0 1008750
11 august, thu
thu1123:00+28nw33788 0.0 1009649
02:00+27nw23795 0.1 1008481
05:00+27nw33795 1.6 1008410
08:00+27w11785 0.8 1010208
11:00+27n11768 1.0 1010404
14:00+28nne11735 0.0 1008558
17:00+28n127182 0.0 1008747
20:00+28nnw01725 0.0 1010541
12 august, fri
fri1223:00+28ese117394 0.0 1011423
02:00+27se227596 0.3 1009385
05:00+27se227653 0.3 1009487
08:00+27ese217623 0.0 1011498
11:00+27se21767 0.0 1010477
14:00+27se117420 0.0 1008675
17:00+28ne117271 0.1 1008705
20:00+28e227350 0.0 1010601
13 august, sat
sat1323:00+28ene227422 0.0 1011578
02:00+27ene2275100 0.0 1009564
05:00+27e2276100 0.1 1009538
08:00+27ese1175100 0.3 1010428
11:00+27ese1175100 0.3 1010531
14:00+27e117486 0.0 1008659
17:00+28ese117299 0.0 1008666
20:00+27e0073100 0.0 1010548
14 august, sun
sun1423:00+27ene1174100 0.0 1010495
02:00+27ne117543 0.0 1009482
05:00+27e117735 0.9 1009306
08:00+27ene11764 0.0 1011430
11:00+27ne227526 0.0 1011500
14:00+27nne117362 0.0 1009575
17:00+28ne2272100 0.0 1009689
20:00+28ne2273100 0.0 1010725